Location: Mentone
(34.5413°N, 85.5351°W)
Time: 09:42:52
(UTC-06:00)

A-11 Canister half - Visible Passes

Search period start: 19 December 2014 00:00
Search period end: 29 December 2014 00:00
Orbit: 1525 x 1685 km, 47.3° (Epoch: 18 December)

Date Brightness Start Highest point End Pass type
(mag) Time Alt. Az. Time Alt. Az. Time Alt. Az.
19 Dec 11.1 02:37:13 11° SSE 02:37:13 11° SSE 02:37:37 10° SSE visible
19 Dec 9.2 17:32:22 10° SW 17:42:11 74° SE 17:50:18 18° ENE visible
19 Dec 9.5 19:38:15 10° W 19:47:55 50° NNW 19:48:37 50° N visible
19 Dec 11.2 21:45:47 10° WNW 21:46:56 14° WNW 21:46:56 14° WNW visible
20 Dec 9.2 17:10:53 10° SW 17:20:38 71° SE 17:30:05 12° ENE visible
20 Dec 9.5 19:16:36 10° W 19:26:17 52° NNW 19:28:24 46° NNE visible
20 Dec 10.9 21:24:08 10° WNW 21:26:43 19° NW 21:26:43 19° NW visible
21 Dec 9.3 16:49:24 10° SW 16:59:05 67° SE 17:09:04 10° ENE visible
21 Dec 9.5 18:54:57 10° W 19:04:38 53° NNW 19:08:09 39° NNE visible
21 Dec 10.6 21:02:29 10° WNW 21:06:28 24° NW 21:06:28 24° NW visible
22 Dec 9.5 18:33:19 10° W 18:43:00 55° NNW 18:47:52 32° NE visible
22 Dec 10.3 20:40:49 10° WNW 20:46:11 30° NW 20:46:11 30° NW visible
23 Dec 9.5 18:11:40 10° WSW 18:21:23 56° NNW 18:27:35 25° NE visible
23 Dec 10.1 20:19:10 10° WNW 20:25:53 35° NNW 20:25:53 35° NNW visible
24 Dec 9.5 17:50:03 10° WSW 17:59:45 58° NNW 18:07:16 20° NE visible
24 Dec 9.9 19:57:30 10° WNW 20:05:34 38° NNW 20:05:34 38° NNW visible
25 Dec 9.5 17:28:25 10° WSW 17:38:08 60° NNW 17:46:57 14° NE visible
25 Dec 9.8 19:35:51 10° WNW 19:45:07 40° N 19:45:15 40° N visible
25 Dec 11.1 21:42:19 10° NW 21:43:33 15° NW 21:43:33 15° NW visible
26 Dec 9.5 17:06:49 10° WSW 17:16:31 61° NNW 17:26:32 10° NE visible
26 Dec 9.7 19:14:11 10° WNW 19:23:26 40° N 19:24:55 38° NNE visible
26 Dec 10.9 21:20:44 10° NW 21:23:14 20° NW 21:23:14 20° NW visible
27 Dec 9.8 18:52:32 10° WNW 19:01:45 40° N 19:04:35 34° NNE visible
27 Dec 10.6 20:59:08 10° NW 21:02:54 25° NW 21:02:54 25° NW visible
28 Dec 9.8 18:30:52 10° WNW 18:40:05 40° N 18:44:16 29° NE visible
28 Dec 10.3 20:37:33 10° NW 20:42:34 31° NW 20:42:34 31° NW visible
